Location: Caltech
(34.1382°N, 118.1253°W)
Time: 17:48:54
(UTC-07:00)

Cosmos 1833 Rocket - Visible Passes

Search period start: 16 April 2014 00:00
Search period end: 26 April 2014 00:00
Orbit: 831 x 842 km, 71.0° (Epoch: 16 April)

Date Brightness Start Highest point End Pass type
(mag) Time Alt. Az. Time Alt. Az. Time Alt. Az.
16 Apr 5.1 02:39:27 10° NNW 02:40:21 15° NNW 02:40:21 15° NNW visible
17 Apr 5.2 02:22:54 10° NNW 02:23:44 15° NNW 02:23:44 15° NNW visible
18 Apr 5.2 02:06:21 10° NNW 02:07:10 14° NNW 02:07:10 14° NNW visible
19 Apr 5.2 01:49:49 10° NNW 01:50:40 15° N 01:50:40 15° N visible
20 Apr 5.3 01:33:17 10° NNW 01:34:12 15° N 01:34:12 15° N visible
21 Apr 5.2 01:16:45 10° N 01:17:46 15° N 01:17:46 15° N visible
22 Apr 5.2 01:00:14 10° N 01:01:22 16° N 01:01:22 16° N visible
23 Apr 5.2 00:43:43 10° N 00:45:00 17° N 00:45:00 17° N visible
24 Apr 5.1 00:27:13 10° N 00:28:39 17° N 00:28:39 17° N visible
25 Apr 5.0 00:10:43 10° N 00:12:20 18° N 00:12:20 18° N visible
25 Apr 4.9 23:54:13 10° N 23:56:02 19° NNE 23:56:02 19° NNE visible
